Regional Weather Roundup
Issued by NWS Sterling, VA

Home | Current Version | Previous Version | Graphics & Text | Print | Product List | Glossary On
Versions: 1 2 3 4 5 6 7 8 9 10 11 12 13 14 15 16 17 18 19 20 21 22 23 24 25 26 27
000
ASUS41 KLWX 260510
RWRLWX

REGIONAL WEATHER ROUNDUP
NATIONAL WEATHER SERVICE BALTIMORE MD/WASHINGTON DC
1200 AM EST SUN FEB 26 2017

Note: "FAIR" indicates few or no clouds below 12,000 feet
with no significant weather and/or obstructions to visibility.
 TC=TEMPERATURE CELSIUS

 * =Non NWS site. Station does not report precipitation (e.g. rain,
    snow, etc.), thunder, or fog.

DCZ001-MDZ009-015-VAZ040>042-051-053>054-260600-
WASHINGTON METRO

CITY           SKY/WX    TMP DP  RH WIND       PRES   REMARKS
WASHINGTON NAT PTCLDY    44  22  41 NW14G28   29.86R
DULLES         MOCLDY    41  21  44 NW21G28   29.86R
ANDREWS AFB    PTCLDY    43  22  44 NW20G31   29.84R
FT BELVOIR     CLEAR     44  20  39 NW15G24   29.88R
QUANTICO       CLEAR     45  23  42 N21G29    29.88R
COLLEGE PARK*  CLOUDY    43  23  45 W6        29.85R
LEESBURG*      CLOUDY    43  28  56 MISG      29.88R
MANASSAS*      CLEAR     41  21  44 NW17G26   29.88R
GAITHERSBURG*  CLOUDY    39  21  48 NW12G21   29.88R

$$

MDZ006>007-011-014-260600-
BALTIMORE METRO

CITY           SKY/WX    TMP DP  RH WIND       PRES   REMARKS
BWI AIRPORT    MOCLDY    43  24  47 NW16G28   29.84R
MD SCIENCE CTR   N/A     45  21  38 MISG      29.83R
MARTIN STATE   PTCLDY    43  28  56 W17G24    29.86R
ANNAPOLIS      CLOUDY    46  27  47 NW15G26   29.83R
FORT MEADE*    MOCLDY    41  27  56 NW7G17    29.88R

$$

MDZ012-015-019>023-260600-
MARYLAND EASTERN SHORE

CITY           SKY/WX    TMP DP  RH WIND       PRES   REMARKS
OCEAN CITY     MOCLDY    50  31  48 NW14G25   29.76R
SALISBURY      PTCLDY    48  30  49 NW13      29.78R
BAY BRIDGE AP* MOCLDY    45  27  49 NW22G28   29.84R
CAMBRIDGE*     MOCLDY    46  27  46 NW17G26   29.80R
EASTON*        PTCLDY    47  27  46 N22G29    29.85R

$$

MDZ017>025-260600-
SOUTHERN MARYLAND

CITY           SKY/WX    TMP DP  RH WIND       PRES   REMARKS
PATUXENT RIVER PTCLDY    46  28  49 NW22G30   29.82R
ST INIGOES     PTCLDY    49  27  42 NW8G23    29.80R
LEONARDTOWN*   PTCLDY    45  27  49 NW10G21   29.84R

$$

MDZ003>005-260600-
NORTH CENTRAL MARYLAND

CITY           SKY/WX    TMP DP  RH WIND       PRES   REMARKS
FREDERICK*     CLOUDY    39  27  60 NW14      29.90R
HAGERSTOWN APT CLOUDY    38  22  52 W17       29.86R WCI  28
WESTMINSTER*   CLOUDY    39  25  56 NW13G22   29.83R

$$

MDZ501>502-260600-
WESTERN MARYLAND

CITY           SKY/WX    TMP DP  RH WIND       PRES   REMARKS
OAKLAND*       CLOUDY    21  18  86 W17G31    29.82S WCI   7
CUMBERLAND*    CLOUDY    34  19  55 NW8G25    29.97R WCI  27

$$

VAZ025>031-260600-
SHENANDOAH VALLEY

CITY           SKY/WX    TMP DP  RH WIND       PRES   REMARKS
WINCHESTER*    MOCLDY    36  21  55 W24G32    29.87R WCI  24
FRONT ROYAL*   CLOUDY    37  21  52 W10G24    29.87R
LURAY*         CLOUDY    37  25  60 NW5G18    29.87R
NEW MARKET*    CLEAR     37  18  46 NW9       29.88R
STAUNTON*      CLEAR     35  19  52 W9        29.88R WCI  28
WAYNESBORO*    CLEAR     35  17  48 W8        29.86R WCI  28

$$

WVZ021-048>050-054>055-260600-
EASTERN WEST VIRGINIA PANHANDLE

CITY           SKY/WX    TMP DP  RH WIND       PRES   REMARKS
MARTINSBURG    CLOUDY    39  21  48 W10G21    29.87R
PETERSBURG*    CLOUDY    36  22  56 W9G17     29.93R

$$

VAZ036>039-050-260600-
CENTRAL FOOTHILLS

CITY           SKY/WX    TMP DP  RH WIND       PRES   REMARKS
CHARLOTTESVILL CLEAR     43  20  39 NW6       29.87R
CULPEPER*      CLEAR     43  23  45 NW14      29.87R
ORANGE*        CLEAR     43  21  42 W8        29.87R
GORDONSVILLE*  CLEAR     43  21  42 CALM      29.86R
WARRENTON*     CLEAR     42  19  38 NW16      29.87R

$$

VAZ055>057-260600-
NORTH AND CENTRAL PIEDMONT

CITY           SKY/WX    TMP DP  RH WIND       PRES   REMARKS
FREDERICKSBRG* CLEAR     46  25  43 NW9       29.85R
STAFFORD*      CLEAR     42  25  50 NW20      29.89R

$$

NCZ024-NYZ072-PAZ021-071-VAZ022-071-260600-
OTHER REGIONAL OBSERVATIONS

CITY           SKY/WX    TMP DP  RH WIND       PRES   REMARKS
NEW YORK CITY  CLOUDY    44  34  67 NW9G17    29.68R
PHILADELPHIA   MOCLDY    47  29  49 NW22G33   29.76R
PITTSBURGH     FLURRIES  28  14  55 W21G30    29.95R WCI  15
ROANOKE        CLEAR     37  17  44 NW15      29.94R WCI  28
RICHMOND       CLEAR     49  22  34 NW16      29.83R
RALEIGH        CLEAR     52  20  28 NW10G22   29.89R

$$

ANZ530>537-260600-
MARINE OBSERVATIONS

STATION/POSITION TIME  TEMP    WIND        PRES
                       AIR SEA DIR/SP/G
                 (UTC) (F)     (DEG/KT/KT) (MB)
THOMAS PT LIGHT  0500   45 44  330/ 18/ 19   N/A
BALT KEY BRIDGE  0448   44     310/ 25/ 28 1009.7R
COVE POINT       0448   46     340/ 17/ 24 1009.9R
LEWISETTA        0448   50 49  340/ 11/ 16 1009.2R
SOLOMONS ISLAND  0448   47 45  320/ 15/ 25   N/A
PINEY POINT      0448          360/ 23/ 26   N/A

$$





USA.gov is the U.S. government's official web portal to all federal, state and local government web resources and services.